Change the Weather History Date:

Monday, September 2, 2013

  Actual Average Record
Temperature  
Mean Temperature 54 °F -  
Max Temperature 57 °F 60 °F 71 °F (1952)
Min Temperature 51 °F 45 °F 37 °F (1973)
Degree Days  
Heating Degree Days 11    
Growing Degree Days 4 (Base 50)    
Moisture  
Dew Point 50 °F    
Average Humidity 85    
Maximum Humidity 94    
Minimum Humidity 74    
Precipitation  
Precipitation 0.47 in - - ()
Sea Level Pressure  
Sea Level Pressure 29.76 in    
Wind  
Wind Speed 12 mph (South)    
Max Wind Speed 22 mph    
Max Gust Speed 36 mph    
Visibility 9 miles    
Events Rain    
Averages and records for this station are not official NWS values.
T = Trace of Precipitation, MM = Missing Value Source: NWS Daily Summary

Daily Weather History Graph

Daily Weather History Graph

Search for Another Location

Airport or City:

Trip Planner

Search our weather history database for the weather conditions in past years. The results will help you decide how hot, cold, wet, or windy it might be!

Date:

Astronomy

Sep. 02, 2013 Rise Set
Actual Time 6:55 AM AKDT 8:56 PM AKDT
Civil Twilight 6:10 AM AKDT 9:41 PM AKDT
Nautical Twilight 5:12 AM AKDT 10:38 PM AKDT
Astronomical Twilight 3:58 AM AKDT 11:51 PM AKDT
Moon 3:57 AM AKDT (9/2) 7:31 PM AKDT (9/2)
Length of Visible Light 15h 30m
Length of Day
14h 01m
Waning Crescent, 7% of the Moon is Illuminated
Sep 2
Waning Crescent
Sep 5
New
Sep 12
First Quarter
Sep 19
Full
Sep 26
Last Quarter

Hourly Weather History & Observations

Time (AKDT) Temp. Dew Point Humidity Pressure Visibility Wind Dir Wind Speed Gust Speed Precip Events Conditions
12:00 AM 55.4 °F 48.2 °F 77% 29.85 in 10.0 mi South 13.8 mph - N/A   Overcast
12:31 AM 53.6 °F 46.4 °F 77% 29.85 in 10.0 mi SSW 12.7 mph - N/A   Overcast
12:53 AM 53.1 °F 48.0 °F 83% 29.85 in 10.0 mi SSW 13.8 mph - 0.01 in Rain Light Rain
1:53 AM 54.0 °F 48.0 °F 80% 29.85 in 10.0 mi South 5.8 mph - 0.00 in   Overcast
2:53 AM 52.0 °F 50.0 °F 93% 29.84 in 10.0 mi SSE 10.4 mph - 0.00 in Rain Light Rain
3:19 AM 51.8 °F 48.2 °F 88% 29.83 in 10.0 mi SSE 8.1 mph - 0.00 in   Overcast
3:53 AM 53.1 °F 50.0 °F 89% 29.82 in 10.0 mi SSE 8.1 mph - 0.00 in   Overcast
4:53 AM 54.0 °F 50.0 °F 86% 29.81 in 10.0 mi Variable 4.6 mph - 0.00 in   Overcast
5:33 AM 53.6 °F 50.0 °F 88% 29.80 in 9.0 mi SSE 6.9 mph - 0.00 in Rain Light Rain
5:44 AM 53.6 °F 51.8 °F 94% 29.80 in 10.0 mi Variable 5.8 mph - 0.00 in Rain Light Rain
5:53 AM 54.0 °F 51.1 °F 90% 29.80 in 10.0 mi South 6.9 mph - 0.00 in Rain Light Rain
6:53 AM 55.0 °F 51.1 °F 86% 29.81 in 10.0 mi South 9.2 mph 17.3 mph 0.01 in Rain Light Rain
7:53 AM 55.0 °F 51.1 °F 86% 29.79 in 10.0 mi South 6.9 mph - 0.02 in   Overcast
8:53 AM 57.0 °F 51.1 °F 81% 29.78 in 10.0 mi South 8.1 mph - N/A   Overcast
9:53 AM 57.0 °F 52.0 °F 83% 29.78 in 8.0 mi South 8.1 mph 17.3 mph 0.00 in Rain Light Rain
10:53 AM 57.9 °F 52.0 °F 81% 29.77 in 10.0 mi South 12.7 mph 19.6 mph 0.00 in   Overcast
11:53 AM 57.9 °F 52.0 °F 81% 29.77 in 10.0 mi South 15.0 mph 21.9 mph N/A   Overcast
12:53 PM 57.9 °F 52.0 °F 81% 29.76 in 10.0 mi South 16.1 mph 21.9 mph N/A   Overcast
1:53 PM 57.0 °F 53.1 °F 87% 29.75 in 10.0 mi SSW 18.4 mph 23.0 mph 0.00 in Rain Light Rain
2:53 PM 57.0 °F 53.1 °F 87% 29.72 in 10.0 mi SSW 20.7 mph 27.6 mph 0.01 in Rain Light Rain
3:08 PM 57.2 °F 53.6 °F 88% 29.72 in 10.0 mi SSW 19.6 mph 29.9 mph 0.00 in Rain Light Rain
3:13 PM 57.2 °F 53.6 °F 88% 29.72 in 10.0 mi SSW 21.9 mph 35.7 mph 0.00 in Rain Light Rain
3:53 PM 57.0 °F 53.1 °F 87% 29.72 in 10.0 mi SSW 20.7 mph 29.9 mph 0.01 in Rain Light Rain
4:53 PM 57.0 °F 53.1 °F 87% 29.70 in 10.0 mi SSW 21.9 mph 27.6 mph 0.02 in   Overcast
5:53 PM 55.9 °F 52.0 °F 87% 29.71 in 9.0 mi SSW 19.6 mph 31.1 mph 0.05 in Rain Light Rain
6:36 PM 53.6 °F 50.0 °F 88% 29.70 in 2.5 mi SSW 11.5 mph - 0.12 in Rain Rain
6:44 PM 53.6 °F 50.0 °F 88% 29.70 in 4.0 mi South 5.8 mph - 0.14 in Rain Rain
6:53 PM 54.0 °F 51.1 °F 90% 29.70 in 3.0 mi South 5.8 mph - 0.17 in Rain Rain
7:02 PM 53.6 °F 51.8 °F 94% 29.70 in 2.5 mi South 5.8 mph - 0.03 in Rain Rain
7:09 PM 55.4 °F 51.8 °F 88% 29.70 in 5.0 mi South 12.7 mph 20.7 mph 0.04 in Rain Light Rain
7:53 PM 55.0 °F 48.9 °F 80% 29.71 in 10.0 mi SSW 12.7 mph 19.6 mph 0.11 in Rain Light Rain
8:53 PM 54.0 °F 48.0 °F 80% 29.67 in 10.0 mi SSW 10.4 mph 17.3 mph 0.02 in Rain Light Rain
9:53 PM 55.0 °F 46.9 °F 74% 29.67 in 10.0 mi SSW 15.0 mph 20.7 mph 0.00 in   Overcast
10:53 PM 55.0 °F 46.9 °F 74% 29.68 in 10.0 mi South 13.8 mph 21.9 mph 0.01 in Rain Light Rain
11:53 PM 54.0 °F 46.0 °F 75% 29.67 in 10.0 mi South 15.0 mph 23.0 mph 0.03 in Rain Light Rain